PROFILE

 METAR AND TAF INFORMATION
ADDS - METARS form results

(0852 UTC 19 August 2019)
http://aviationweather.gov/metar/data/
 
CYWL 190800Z 26004KT 15SM FEW140 BKN220 14/03 A2981 RMK AC2CI4 SLP093 DENSITY ALT 3800FT
TAF CYWL 190638Z 1907/1919 VRB03KT P6SM SCT140 BKN200 TEMPO 1907/1915 BKN140 FM191500 30005KT P6SM FEW140 RMK NXT FCST BY 191300Z 

 AIRPORT MAP

 RUNWAY INFORMATION
Runway 11 Runway length 7000 ft Runway width 150 ft
Runway elevation 3082 ft Runway displaced threshold 0 ft Runway heading 135
Runway 29 Runway length 7000 ft Runway width 150 ft
Runway elevation 3074 ft Runway displaced threshold 0 ft Runway heading 315

 AIRPORT FREQUENCIES
Type MF Name Williams L Frequency 122.3 MHZ
Type PAL Name Vancouver Frequency 134 MHZ
Type PAL Name Vancouver Frequency 381.4 MHZ
Type RADIO Name Williams L Frequency 122.3 MHZ
Type RCO Name Pacific Ra Frequency 123.275 MHZ
Type VDF Name VHF Direct Frequency 122.3 MHZ

 AIRPORT NEAR NAVIGATION AIDS
Type NDB Name Williams Lake Frequency 385 KHZ
Type VORTAC Name Williams Lake Frequency 113600 KHZ